User: anonymous   Login
Location: Unspecified
(0.0000°N, 0.0000°E)
Time: 18:59:37
(UTC+00:00)
Language:

OGO 1 - Orbit

View from above orbital plane
View from above orbital plane
View from above satellite
View from above satellite

Ground track
Ground track

The orbit data is extracted from the following two-line orbital elements,

1   879U 64054A   19344.49369471  .00000499  00000-0  00000+0 0  9998
2   879  68.4158 318.9259 8706050 201.8430   0.1101  0.37837439 20851
Epoch (UTC): 10 December 2019 11:50:55
Eccentricity: 0.8706050
inclination: 68.4158°
perigee height: 4070 km
apogee height: 144664 km
right ascension of ascending node: 318.9259°
argument of perigee: 201.8430°
revolutions per day: 0.37837439
mean anomaly at epoch: 0.1101°
orbit number at epoch: 2085

The dashed part of the orbit path shows where the satellite is in the earth's shadow,  

DLR